Regional Weather Roundup
Issued by NWS

Home | Current Version | Previous Version | Graphics & Text | Print | Product List | Glossary On
Versions: 1 2 3 4 5 6 7 8 9 10 11 12 13 14 15 16 17 18 19 20 21 22 23 24 25 26 27 28 29 30 31 32 33 34 35 36 37 38 39 40 41 42 43 44 45 46 47 48 49 50
000
ASUS43 KBIS 180710
RWRND

NORTH DAKOTA REGIONAL WEATHER ROUNDUP
NATIONAL WEATHER SERVICE BISMARCK ND
200 AM CDT SAT APR 18 2015

NOTE: "FAIR" INDICATES FEW OR NO CLOUDS BELOW 12,000 FEET WITH NO
SIGNIFICANT WEATHER AND/OR OBSTRUCTIONS TO VISIBILITY.


NDZ001>003-009>011-017-180800-
NORTHWEST NORTH DAKOTA

CITY           SKY/WX    TMP DP  RH WIND       PRES   REMARKS
WILLISTON      CLEAR     50  26  39 VRB3      30.06F
MINOT          CLEAR     40  27  59 SE8       30.11S
MINOT AFB      CLEAR     36  27  70 SE6       30.11S
$$

NDZ018>021-031>035-040>046-180800-
SOUTHWEST NORTH DAKOTA

CITY           SKY/WX    TMP DP  RH WIND       PRES   REMARKS
BISMARCK       CLEAR     43  29  57 E7        30.11S
DICKINSON      CLEAR     42  25  50 SE10      30.06S
GARRISON         N/A     43  27  53 SE8       30.11R
HETTINGER ARPT PTCLDY    33  25  72 W5        30.07F
$$

NDZ004>008-012>016-024-026-027-054-180800-
NORTHEAST NORTH DAKOTA

CITY           SKY/WX    TMP DP  RH WIND       PRES   REMARKS
GRAND FORKS    CLEAR     33  26  75 N5        30.15S
GRND FRKS AFB  CLEAR     32  26  77 N3        30.15S
DEVILS LAKE    CLEAR     39  28  65 E6        30.14S
$$

NDZ022-023-025-028>030-036>039-047>053-180800-
SOUTHEAST NORTH DAKOTA

CITY           SKY/WX    TMP DP  RH WIND       PRES   REMARKS
FARGO          CLEAR     47  23  38 NE8       30.12R
JAMESTOWN      PTCLDY    40  25  55 NE8       30.12S
$$



USA.gov is the U.S. government's official web portal to all federal, state and local government web resources and services.